Location: Peach Mountain Observatory
(42.3967°N, 83.9367°W)
Time: 15:15:14
(UTC-04:00)

deb Explorer IX - Pass Details

Date: 26 January 2020
Orbit: 548 x 1100 km, 38.8° (Epoch: 09 April)

Event Time Altitude Azimuth Distance (km) Brightness Sun altitude
Rises 02:29:15 0° 277° (W) 3,911 - -58.2°
Reaches altitude 10° 02:32:11 10° 271° (W) 2,951 - -57.8°
Maximum altitude 02:38:57 43° 204° (SSW) 1,459 - -56.8°
Drops below altitude 10° 02:45:18 10° 135° (SE) 2,755 - -55.8°
Sets 02:47:57 0° 128° (SE) 3,629 - -55.4°
